When you browse on this site, cookies collect data to enhance your experience and personalize the content and advertising you see.
Visit our Privacy Policy to learn more. By continuing to use the site, you agree to this use of cookies and data.
  • In Spain
  • List of Countries
  • For 7 days
  • Water Temperature
  • Weather Map
  • Weather Widgets
  • user-avatar
    Login

    Hourly Weather Valencia

    Today, 31 May, Sunday

    Time Temperature Precipitation Wind Pressure Humidity
    00:00 +24°C° 0 mm 1 mps 718 mmHg 95%
    01:00 +24°C° 0 mm 1 mps 718 mmHg 96%
    02:00 +24°C° 0 mm 1 mps 718 mmHg 95%
    03:00 +23°C° 0 mm 1 mps 718 mmHg 95%
    04:00 +21°C° 0 mm 0 mps 718 mmHg 95%
    05:00 +22°C° 0 mm 0 mps 718 mmHg 92%
    06:00 +23°C° 0 mm 0 mps 719 mmHg 89%
    07:00 +24°C° 0 mm 0 mps 719 mmHg 86%
    08:00 +27°C° 1.2 mm 1 mps 720 mmHg 83%
    09:00 +28°C° 1.2 mm 1 mps 720 mmHg 80%
    10:00 +29°C° 1.2 mm 1 mps 720 mmHg 77%
    11:00 +28°C° 2.2 mm 1 mps 720 mmHg 81%
    12:00 +27°C° 2.2 mm 2 mps 719 mmHg 85%
    13:00 +26°C° 2.2 mm 2 mps 719 mmHg 90%
    14:00 +25°C° 1.4 mm 2 mps 718 mmHg 92%
    15:00 +25°C° 1.4 mm 1 mps 718 mmHg 93%
    16:00 +24°C° 1.4 mm 1 mps 717 mmHg 95%
    17:00 +24°C° 0.2 mm 1 mps 718 mmHg 95%
    18:00 +24°C° 0.2 mm 1 mps 718 mmHg 95%
    19:00 +22°C° 0.2 mm 0 mps 718 mmHg 95%
    20:00 +22°C° 0 mm 0 mps 719 mmHg 95%
    21:00 +22°C° 0 mm 0 mps 719 mmHg 94%
    22:00 +23°C° 0 mm 1 mps 719 mmHg 94%
    23:00 +21°C° 0 mm 0 mps 719 mmHg 94%

    Tomorrow, 1 June, Monday

    Time Temperature Precipitation Wind Pressure Humidity
    00:00 +21°C° 0 mm 0 mps 718 mmHg 94%
    01:00 +21°C° 0 mm 0 mps 718 mmHg 94%
    02:00 +21°C° 0 mm 0 mps 718 mmHg 93%
    03:00 +21°C° 0 mm 0 mps 718 mmHg 92%
    04:00 +21°C° 0 mm 0 mps 718 mmHg 92%
    05:00 +22°C° 0 mm 0 mps 718 mmHg 89%
    06:00 +23°C° 0 mm 0 mps 719 mmHg 87%
    07:00 +24°C° 0 mm 0 mps 719 mmHg 85%
    08:00 +28°C° 0 mm 1 mps 720 mmHg 77%
    09:00 +29°C° 0 mm 1 mps 720 mmHg 68%
    10:00 +31°C° 0 mm 1 mps 720 mmHg 60%
    11:00 +31°C° 0.4 mm 1 mps 720 mmHg 62%
    12:00 +31°C° 0.4 mm 1 mps 719 mmHg 64%
    13:00 +31°C° 0.4 mm 1 mps 718 mmHg 65%
    14:00 +31°C° 0.5 mm 1 mps 718 mmHg 68%
    15:00 +30°C° 0.5 mm 1 mps 717 mmHg 71%
    16:00 +30°C° 0.5 mm 1 mps 717 mmHg 74%
    17:00 +28°C° 0.1 mm 1 mps 717 mmHg 81%
    18:00 +26°C° 0.1 mm 1 mps 717 mmHg 87%
    19:00 +25°C° 0.1 mm 1 mps 717 mmHg 93%
    20:00 +25°C° 0 mm 1 mps 718 mmHg 94%
    21:00 +24°C° 0 mm 1 mps 718 mmHg 94%
    22:00 +24°C° 0 mm 1 mps 719 mmHg 95%
    23:00 +24°C° 0 mm 1 mps 719 mmHg 95%

    Day after tomorrow, 2 June, Tuesday

    Time Temperature Precipitation Wind Pressure Humidity
    00:00 +22°C° 0 mm 0 mps 718 mmHg 95%
    01:00 +22°C° 0 mm 0 mps 718 mmHg 95%
    02:00 +22°C° 0 mm 0 mps 718 mmHg 95%
    03:00 +22°C° 0 mm 0 mps 718 mmHg 95%
    04:00 +21°C° 0 mm 0 mps 718 mmHg 95%
    05:00 +22°C° 0 mm 0 mps 718 mmHg 92%
    06:00 +23°C° 0 mm 0 mps 718 mmHg 90%
    07:00 +24°C° 0 mm 0 mps 719 mmHg 87%
    08:00 +28°C° 0.1 mm 1 mps 719 mmHg 78%
    09:00 +29°C° 0.1 mm 1 mps 719 mmHg 68%
    10:00 +31°C° 0.1 mm 1 mps 720 mmHg 58%
    11:00 +32°C° 0.1 mm 1 mps 719 mmHg 55%
    12:00 +32°C° 0.1 mm 1 mps 718 mmHg 52%
    13:00 +33°C° 0.1 mm 1 mps 718 mmHg 49%
    14:00 +32°C° 0 mm 2 mps 717 mmHg 55%
    15:00 +31°C° 0 mm 2 mps 717 mmHg 60%
    16:00 +30°C° 0 mm 2 mps 716 mmHg 66%
    17:00 +28°C° 0 mm 2 mps 716 mmHg 74%
    18:00 +26°C° 0 mm 2 mps 716 mmHg 82%
    19:00 +25°C° 0 mm 2 mps 717 mmHg 90%
    20:00 +24°C° 0 mm 1 mps 717 mmHg 89%
    21:00 +24°C° 0 mm 1 mps 717 mmHg 88%
    22:00 +24°C° 0 mm 1 mps 718 mmHg 88%
    23:00 +23°C° 0 mm 1 mps 717 mmHg 88%

    3 June, Wednesday

    Time Temperature Precipitation Wind Pressure Humidity
    00:00 +23°C° 0 mm 1 mps 717 mmHg 89%
    01:00 +23°C° 0 mm 1 mps 717 mmHg 90%
    02:00 +23°C° 0 mm 1 mps 717 mmHg 91%
    03:00 +23°C° 0 mm 1 mps 717 mmHg 92%
    04:00 +22°C° 0 mm 1 mps 717 mmHg 93%
    05:00 +24°C° 0 mm 1 mps 717 mmHg 88%
    06:00 +23°C° 0 mm 0 mps 718 mmHg 84%
    07:00 +24°C° 0 mm 0 mps 719 mmHg 79%
    08:00 +26°C° 0 mm 0 mps 719 mmHg 72%
    09:00 +30°C° 0 mm 1 mps 719 mmHg 64%
    10:00 +32°C° 0 mm 1 mps 719 mmHg 57%
    11:00 +32°C° 0.1 mm 1 mps 719 mmHg 56%
    12:00 +32°C° 0.1 mm 1 mps 718 mmHg 55%
    13:00 +33°C° 0.1 mm 1 mps 717 mmHg 54%
    14:00 +32°C° 0 mm 1 mps 717 mmHg 57%
    15:00 +31°C° 0 mm 2 mps 716 mmHg 61%
    16:00 +30°C° 0 mm 2 mps 716 mmHg 65%
    17:00 +29°C° 0 mm 2 mps 716 mmHg 73%
    18:00 +27°C° 0 mm 2 mps 716 mmHg 81%
    19:00 +25°C° 0 mm 1 mps 716 mmHg 90%
    20:00 +24°C° 0 mm 1 mps 717 mmHg 91%
    21:00 +24°C° 0 mm 1 mps 717 mmHg 92%
    22:00 +24°C° 0 mm 1 mps 718 mmHg 92%
    23:00 +24°C° 0 mm 1 mps 717 mmHg 93%

    4 June, Thursday

    Time Temperature Precipitation Wind Pressure Humidity
    00:00 +24°C° 0 mm 1 mps 717 mmHg 94%
    01:00 +24°C° 0 mm 1 mps 716 mmHg 95%
    02:00 +23°C° 0 mm 1 mps 716 mmHg 95%
    03:00 +23°C° 0 mm 1 mps 717 mmHg 95%
    04:00 +23°C° 0 mm 1 mps 717 mmHg 95%
    05:00 +22°C° 0 mm 0 mps 717 mmHg 91%
    06:00 +23°C° 0 mm 0 mps 718 mmHg 87%
    07:00 +24°C° 0 mm 0 mps 718 mmHg 82%
    08:00 +26°C° 0 mm 0 mps 719 mmHg 74%
    09:00 +30°C° 0 mm 1 mps 719 mmHg 65%
    10:00 +31°C° 0 mm 1 mps 719 mmHg 56%
    11:00 +32°C° 0 mm 1 mps 719 mmHg 54%
    12:00 +32°C° 0 mm 1 mps 718 mmHg 51%
    13:00 +33°C° 0 mm 1 mps 717 mmHg 49%
    14:00 +32°C° 0 mm 1 mps 717 mmHg 53%
    15:00 +31°C° 0 mm 2 mps 717 mmHg 57%
    16:00 +30°C° 0 mm 2 mps 716 mmHg 61%
    17:00 +28°C° 0 mm 2 mps 716 mmHg 70%
    18:00 +26°C° 0 mm 2 mps 717 mmHg 79%
    19:00 +24°C° 0 mm 1 mps 717 mmHg 88%
    20:00 +24°C° 0 mm 1 mps 717 mmHg 89%
    21:00 +24°C° 0 mm 1 mps 718 mmHg 91%
    22:00 +23°C° 0 mm 1 mps 718 mmHg 92%
    23:00 +23°C° 0 mm 1 mps 718 mmHg 93%

    5 June, Friday

    Time Temperature Precipitation Wind Pressure Humidity
    00:00 +23°C° 0 mm 1 mps 718 mmHg 93%
    01:00 +23°C° 0 mm 1 mps 717 mmHg 94%
    02:00 +23°C° 0 mm 1 mps 717 mmHg 94%
    03:00 +23°C° 0 mm 1 mps 717 mmHg 94%
    04:00 +21°C° 0 mm 0 mps 718 mmHg 95%
    05:00 +22°C° 0 mm 0 mps 718 mmHg 89%
    06:00 +23°C° 0 mm 0 mps 718 mmHg 84%
    07:00 +24°C° 0 mm 0 mps 719 mmHg 79%
    08:00 +28°C° 0 mm 1 mps 719 mmHg 71%
    09:00 +30°C° 0 mm 1 mps 720 mmHg 63%
    10:00 +32°C° 0 mm 2 mps 720 mmHg 55%
    11:00 +31°C° 0.4 mm 2 mps 719 mmHg 58%
    12:00 +31°C° 0.4 mm 2 mps 718 mmHg 60%
    13:00 +31°C° 0.4 mm 2 mps 718 mmHg 63%
    14:00 +30°C° 1.7 mm 2 mps 717 mmHg 69%
    15:00 +30°C° 1.7 mm 1 mps 717 mmHg 74%
    16:00 +29°C° 1.7 mm 1 mps 716 mmHg 80%
    17:00 +28°C° 0.4 mm 1 mps 717 mmHg 84%
    18:00 +26°C° 0.4 mm 1 mps 717 mmHg 87%
    19:00 +25°C° 0.4 mm 1 mps 717 mmHg 91%
    20:00 +25°C° 0 mm 1 mps 718 mmHg 91%
    21:00 +25°C° 0 mm 1 mps 718 mmHg 92%
    22:00 +24°C° 0 mm 1 mps 719 mmHg 93%
    23:00 +24°C° 0.1 mm 1 mps 718 mmHg 93%
    Show more